sat.trackr.live / text

‹ back to catalog

ABS-4 (MOBISAT-1)

NORAD 28184 · 2004-007A

PAYLOAD ACTIVE UNKNOWN

§ Identity

Operator
Country
ABS
Launch date
2004-03-13
Launch site
AFETR
Launch vehicle
Mass (kg)
RCS (m²)
10.00

Purposes: comms

External: N2YO · Heavens-Above · Gunter

§ Orbital elements

Epoch: 2026-09-19T17:16:38.775936Z

Period
1,436.04 min
Inclination
6.2744°
Eccentricity
0.0005296
Mean motion
1.00275822 rev/d
Perigee alt
35,763.1 km
Apogee alt
35,807.8 km
Semi-major
42,163.6 km
B*
0.0000e+0
RAAN
70.8124°
Arg perigee
115.6437°
Mean anomaly
132.3989°
Rev number
5,328

§ Raw data

ABS-4 (MOBISAT-1)1 28184U 04007A   26262.71989324  .00000035  00000+0  00000+0 0  99912 28184   6.2744  70.8124 0005296 115.6437 132.3989  1.00275822 53289

JSON: /api/v1/satellites/28184 · /tle

For live sub-satellite position, see the globe view (requires WebGL).

§ Visibility from observer

Set your observer location to see the next 7 days of passes ≥ 10°. The values pass through the URL so the page stays shareable.

No JS? Fill the form by hand. The geolocation button needs JavaScript.